Flag for U.S.A. Weather past 2 weeks in Oklahoma City, Oklahoma, U.S.A.

Now
59 °F

Low clouds.


Feels Like: 57 °F
Forecast: 56 / 77 °F
Wind: 12 mph from Southwest

Location: Will Rogers World Airport

Current Time: May 26, 2015 at 9:52:16 AM

Latest Report: May 26, 2015 at 8:52 AM


Visibility: 3 mi

Pressure: 29.97 "Hg

Humidity: 96%

Dew point: 58 °F

Location of Oklahoma CityLocation

Historic Weather in Oklahoma City — Graph

°F

Oklahoma City temperature yesterday

Maximum temperature yesterday: 77 °F (at 11:52 AM)
Minimum temperature yesterday: 58 °F (at 11:52 PM)
Average temperature yesterday: 67 °F

Past Weeks' High & Low Weather Summary

 TemperatureHumidityPressure
High88 °F (May 18, 4:52 PM)100% (May 22, 8:54 AM)30.34 "Hg (May 22, 8:54 AM)
Low50 °F (May 21, 4:52 AM)31% (May 17, 3:52 PM)29.65 "Hg (May 16, 5:52 PM)
Average66 °F77%30.00 "Hg
* Reported May 11 7:52 AM — May 26 7:52 AM, Oklahoma City, Weather by CustomWeather, © 2015

Note: Actual official high and low records may vary slightly from our data, if they occured in-between our weather recording intervals... More about our weather records

Advertising

Oklahoma City weather history for previous 24 hours

 ConditionsComfort  
Time TempWeatherWind HumidityBarometerVisibility
7:52 AM
Tue, May 26
57 °FFog.8 mph100%29.95 "Hg0 mi
6:52 AM57 °FFog.6 mph96%29.93 "Hg0 mi
6:01 AM53 °FFog.3 mph96%29.92 "Hg1 mi
4:52 AM53 °FPassing clouds.3 mph96%29.88 "Hg10 mi
3:52 AM54 °FPassing clouds.6 mph97%29.87 "Hg10 mi
2:52 AM54 °FFog.No wind97%29.83 "Hg6 mi
1:52 AM54 °FFog.7 mph97%29.83 "Hg6 mi
12:52 AM55 °FPassing clouds.No wind96%29.82 "Hg10 mi
11:52 PM
Mon, May 25
58 °FPassing clouds.6 mph93%29.82 "Hg10 mi
10:52 PM59 °FPassing clouds.7 mph90%29.81 "Hg10 mi
9:52 PM61 °FMostly cloudy.No wind87%29.80 "Hg10 mi
8:52 PM63 °FBroken clouds.No wind78%29.78 "Hg10 mi
7:52 PM62 °FCloudy.3 mph86%29.77 "Hg10 mi
6:52 PM64 °FMore clouds than sun.6 mph78%29.76 "Hg10 mi
5:52 PM66 °FCloudy.20 mph65%29.72 "Hg10 mi
4:52 PM64 °FMore clouds than sun.28 mph75%29.69 "Hg10 mi
3:52 PM62 °FThunderstorms. Fog.16 mph86%29.88 "Hg5 mi
2:52 PM73 °FCloudy.9 mph79%29.81 "Hg10 mi
1:52 PM76 °FMore clouds than sun.14 mph72%29.84 "Hg10 mi
12:59 PM76 °FCloudy.17 mph72%29.88 "Hg10 mi
11:52 AM77 °FPartly sunny.20 mph69%29.85 "Hg10 mi
10:52 AM75 °FBroken clouds.20 mph76%29.85 "Hg10 mi
9:52 AM70 °FMostly cloudy.13 mph87%29.85 "Hg10 mi
9:03 AM70 °FMostly cloudy.14 mph90%29.87 "Hg10 mi
Weather by CustomWeather, © 2015

See weather overviewHow to use our weather pages